User: anonymous   Login
Location: Caltech
(34.1382°N, 118.1253°W)
Time: 10:03:47
(UTC-07:00)
Language:

DELTA 2 R/B (1) - Orbit

View from above orbital plane
View from above orbital plane
View from above satellite
View from above satellite

Ground track
Ground track

The orbit data is extracted from the following two-line orbital elements,

1 27665U 03005C   16271.81276654 -.00000036  00000-0  19484-4 0  9990
2 27665  39.5772   6.2010 0009426 357.6770 150.2748 14.28420153713408
Epoch (UTC): 27 September 2016 19:30:23
Eccentricity: 0.0009426
inclination: 39.5772°
perigee height: 790 km
apogee height: 804 km
right ascension of ascending node: 6.2010°
argument of perigee: 357.6770°
revolutions per day: 14.28420153
mean anomaly at epoch: 150.2748°
orbit number at epoch: 71340

The dashed part of the orbit path shows where the satellite is in the earth's shadow,  

DLR